Location: Igri�s
(42.2144°N, 0.4320°W)
Time: 14:23:45
(UTC+00:00)

Cosmos 540 Rocket - Pass Details

Date: 13 August 2020
Orbit: 740 x 754 km, 74.1° (Epoch: 24 September)

Event Time Altitude Azimuth Distance (km) Brightness Sun altitude
Rises 21:21:35 0° 345° (NNW) 3,211 7.7 -21.9°
Reaches altitude 10° 21:24:03 10° 351° (N) 2,284 6.7 -22.3°
Maximum altitude 21:29:02 47° 65° (ENE) 998 3.9 -22.9°
Enters shadow 21:29:36 45° 85° (E) 1,024 3.8 -23.0°
